Total_Precipitation_Accumulation
0.03 0.05 0.10 0.09 0.09 0.16 0.17 0.18 0.27 0.33 0.28 0.34 0.48 0.62 0.83 1.00 1.28 1.55 1.54 1.49 1.57 1.81 2.08 2.33 2.69 3.06 3.27 3.46 3.56 3.87 4.09 3.83 3.38 3.01 2.56 2.40 2.34 2.10 1.90 1.83 1.68 1.83 1.81 2.05
0.03 0.05 0.06 0.05 0.05 0.09 0.13 0.15 0.26 0.34 0.29 0.33 0.48 0.78 0.94 1.02 1.07 1.21 1.33 1.25 1.35 1.66 1.71 1.80 1.96 2.28 2.42 2.66 2.95 3.28 3.51 3.34 2.80 2.60 2.43 2.33 2.26 2.09 2.04 1.96 1.97 1.78 1.78 2.00
0.03 0.04 0.05 0.04 0.04 0.06 0.12 0.13 0.19 0.28 0.32 0.41 0.53 1.10 1.17 1.02 0.92 0.85 1.03 1.10 1.10 1.29 1.43 1.49 1.53 1.62 1.94 2.47 2.66 2.55 2.78 2.95 2.69 2.58 2.50 2.41 2.37 2.17 2.21 2.15 2.07 1.73 1.63 1.68
0.03 0.03 0.03 0.03 0.04 0.05 0.11 0.10 0.11 0.16 0.25 0.54 0.64 1.19 1.23 1.06 1.05 0.85 0.83 0.89 0.84 0.81 1.00 1.18 1.21 1.29 1.48 1.76 2.06 2.35 2.61 2.73 2.64 2.50 2.27 2.12 1.95 1.89 1.89 1.90 1.91 1.78 1.71 1.63
0.03 0.02 0.02 0.03 0.04 0.04 0.05 0.06 0.08 0.14 0.25 0.48 0.61 1.00 1.21 1.05 1.21 0.93 0.66 0.56 0.51 0.48 0.59 0.79 0.93 1.06 1.13 1.28 1.66 2.15 2.56 2.78 2.61 2.30 2.12 2.15 1.99 1.94 1.87 1.81 2.04 1.91 1.80 1.67
0.02 0.02 0.02 0.02 0.03 0.03 0.03 0.06 0.16 0.29 0.45 0.83 0.79 0.84 1.13 0.89 0.73 0.57 0.45 0.36 0.36 0.39 0.44 0.56 0.69 0.89 0.99 1.07 1.32 1.72 2.08 2.31 2.32 2.17 2.08 2.14 2.17 2.15 2.01 1.83 1.84 1.71 1.69 1.64
0.07 0.07 0.04 0.03 0.02 0.03 0.03 0.07 0.30 0.56 0.81 0.98 0.63 0.81 1.15 0.73 0.57 0.45 0.37 0.34 0.33 0.32 0.45 0.58 0.67 0.78 0.80 0.83 1.02 1.34 1.56 1.74 1.94 2.04 2.05 2.02 2.14 2.18 1.97 1.76 1.74 1.73 1.57 1.52
0.10 0.16 0.07 0.03 0.03 0.03 0.04 0.06 0.16 0.28 0.40 0.57 0.63 1.28 1.16 0.59 0.45 0.37 0.33 0.32 0.32 0.32 0.40 0.56 0.68 0.72 0.71 0.72 0.90 1.08 1.28 1.51 1.76 1.92 2.00 1.98 1.93 1.81 1.76 1.87 1.78 1.75 1.70 1.63
0.04 0.06 0.05 0.04 0.03 0.04 0.05 0.05 0.08 0.12 0.15 0.41 0.76 0.95 0.71 0.39 0.38 0.40 0.35 0.36 0.37 0.43 0.55 0.64 0.78 0.82 0.72 0.73 0.87 0.95 1.12 1.32 1.47 1.71 1.89 1.84 1.84 1.72 1.71 1.77 1.71 1.66 1.80 1.76
0.03 0.03 0.03 0.03 0.03 0.04 0.05 0.04 0.07 0.08 0.14 0.31 0.61 0.85 0.90 0.60 0.46 0.41 0.40 0.42 0.43 0.52 0.72 0.84 0.81 0.84 0.80 0.80 0.90 0.97 1.09 1.20 1.26 1.41 1.50 1.42 1.64 1.69 1.82 1.79 1.69 1.62 1.61 1.65
0.02 0.02 0.02 0.03 0.04 0.06 0.07 0.05 0.05 0.06 0.08 0.20 0.47 0.66 0.65 0.59 0.56 0.43 0.40 0.47 0.55 0.56 0.73 0.86 0.83 0.81 0.76 0.79 0.85 0.88 1.02 1.13 1.17 1.31 1.40 1.48 1.58 1.66 1.72 1.73 1.71 1.69 1.69 1.72
0.02 0.02 0.02 0.04 0.06 0.06 0.09 0.10 0.10 0.09 0.08 0.12 0.24 0.39 0.37 0.43 0.50 0.42 0.43 0.54 0.64 0.50 0.57 0.78 0.85 0.89 0.70 0.73 0.79 0.82 0.92 1.04 1.10 1.28 1.45 1.54 1.71 1.75 1.68 1.67 1.84 1.87 1.85 1.84
0.02 0.02 0.03 0.10 0.15 0.11 0.08 0.08 0.10 0.10 0.09 0.09 0.16 0.33 0.32 0.36 0.46 0.42 0.48 0.58 0.61 0.59 0.58 0.74 0.84 0.78 0.70 0.71 0.78 0.82 0.90 1.01 1.11 1.25 1.44 1.64 1.71 1.76 1.85 1.98 2.13 2.18 2.11 2.08
0.03 0.02 0.03 0.11 0.19 0.23 0.17 0.10 0.09 0.09 0.09 0.08 0.12 0.25 0.33 0.42 0.48 0.47 0.50 0.61 0.62 0.59 0.57 0.58 0.75 0.79 0.73 0.71 0.75 0.80 0.93 1.07 1.24 1.49 1.65 1.78 1.96 2.06 2.10 2.06 2.15 2.17 2.19 2.24
0.03 0.02 0.02 0.05 0.08 0.13 0.13 0.10 0.09 0.08 0.08 0.10 0.14 0.23 0.33 0.43 0.49 0.55 0.58 0.58 0.58 0.54 0.57 0.70 0.81 0.95 0.95 0.89 0.83 0.88 1.10 1.31 1.54 1.81 1.89 1.92 1.98 2.09 2.23 2.36 2.38 2.37 2.36 2.32
0.05 0.04 0.05 0.06 0.08 0.09 0.08 0.08 0.08 0.07 0.07 0.09 0.13 0.24 0.36 0.48 0.54 0.50 0.52 0.50 0.54 0.62 0.69 0.85 0.97 1.08 1.18 1.22 1.22 1.26 1.42 1.68 1.99 2.28 2.40 2.50 2.55 2.61 2.68 2.71 2.73 2.78 2.74 2.68
0.14 0.14 0.14 0.12 0.12 0.12 0.10 0.10 0.10 0.10 0.11 0.13 0.19 0.28 0.43 0.58 0.55 0.61 0.64 0.60 0.68 0.75 0.85 0.96 1.07 1.14 1.27 1.32 1.41 1.58 1.76 2.01 2.25 2.42 2.52 2.64 2.75 2.88 2.98 2.99 2.99 2.87 2.81 2.74
0.34 0.30 0.24 0.19 0.23 0.25 0.15 0.16 0.19 0.22 0.25 0.28 0.31 0.38 0.47 0.59 0.60 0.64 0.67 0.66 0.68 0.81 0.98 1.02 1.10 1.21 1.27 1.40 1.57 1.74 1.84 2.01 2.33 2.53 2.62 2.66 2.70 2.80 2.95 3.11 3.05 2.91 2.85 2.80
0.42 0.48 0.43 0.32 0.29 0.31 0.30 0.27 0.29 0.38 0.47 0.44 0.59 0.67 0.62 0.65 0.70 0.72 0.72 0.87 0.88 0.88 0.98 1.04 1.16 1.26 1.37 1.43 1.49 1.52 1.62 1.81 2.03 2.25 2.43 2.44 2.56 2.75 2.85 2.89 2.91 2.97 2.94 2.73
0.34 0.38 0.45 0.47 0.49 0.46 0.45 0.47 0.38 0.44 0.76 0.77 0.86 0.94 0.89 0.91 1.09 1.02 0.78 0.77 0.84 0.91 0.99 1.10 1.25 1.34 1.35 1.34 1.35 1.44 1.60 1.82 2.03 2.23 2.43 2.59 2.72 2.85 2.89 2.94 3.04 3.05 2.98 2.93
0.50 0.52 0.51 0.53 0.58 0.58 0.51 0.47 0.48 0.81 1.09 1.07 1.15 1.18 1.10 1.14 1.17 1.09 0.92 0.86 0.85 0.91 0.98 1.08 1.24 1.39 1.43 1.40 1.53 1.65 1.79 1.96 2.14 2.26 2.35 2.49 2.66 2.86 3.10 3.25 3.17 3.14 3.08 2.97
0.73 0.73 0.71 0.74 0.94 1.06 0.78 0.70 0.92 1.11 0.88 0.94 1.12 1.32 1.34 1.28 1.19 1.11 1.02 0.95 0.87 0.83 0.90 1.08 1.21 1.35 1.50 1.61 1.75 1.88 1.91 1.98 2.15 2.33 2.41 2.47 2.64 2.70 2.84 3.08 3.10 3.01 2.98 2.89
0.83 0.94 1.03 1.07 1.25 1.14 0.96 0.98 0.92 1.01 1.18 1.24 1.34 1.54 1.55 1.40 1.26 1.26 1.18 1.06 0.98 0.95 1.01 1.12 1.23 1.35 1.44 1.62 1.80 1.95 2.05 2.13 2.22 2.32 2.45 2.60 2.68 2.70 2.81 2.97 3.04 3.00 2.91 2.80
0.88 0.77 0.98 1.28 1.42 1.26 1.10 1.07 1.03 1.10 1.29 1.37 1.35 1.38 1.41 1.37 1.30 1.42 1.42 1.26 1.21 1.22 1.22 1.26 1.33 1.39 1.46 1.54 1.71 1.90 2.04 2.09 2.21 2.27 2.33 2.47 2.60 2.71 2.85 2.87 2.75 2.62 2.48 2.41
0.93 0.96 1.15 1.55 1.75 1.67 1.48 1.34 1.25 1.28 1.24 1.32 1.25 1.28 1.29 1.33 1.32 1.39 1.50 1.53 1.45 1.33 1.27 1.31 1.38 1.46 1.49 1.54 1.61 1.84 2.04 2.12 2.15 2.24 2.29 2.28 2.30 2.38 2.51 2.58 2.52 2.38 2.23 2.13
1.01 1.22 1.54 1.93 1.92 2.02 1.89 1.56 1.38 1.44 1.41 1.35 1.31 1.38 1.43 1.41 1.36 1.38 1.51 1.55 1.53 1.43 1.37 1.38 1.40 1.44 1.48 1.57 1.67 1.76 2.00 2.23 2.29 2.27 2.16 2.08 2.00 2.00 2.01 2.00 2.04 2.15 2.04 2.03